Volver al catálogo

CZ-6A DEB

ActivoPO
NORAD 60987·DEBRIS·🇨🇳 China

Lanzado Aug 6, 2024 desde Taiyuan Satellite Launch Center

Loading…

Próximos Pases (próximas 24 horas)

TLE

ActualizadoSource: Space-Track

Época: Sep 13, 2026, 12:47 UTC

1 60987U 24140MN  26256.53289720  .00000091  00000-0  37078-4 0  9997
2 60987  88.9890 264.4034 0047809 276.2324  83.3420 14.18084378106686

Sigue CZ-6A DEB en tiempo real con AllMySat

Download on the App Store